#timestamp,LO_Frequency,Hit,StdDev 
1563336015.5,286046998.0,N
1563336035.3,286046998.3,N
1563336055.1,286046998.4,N
1563336075.9,286046997.0,N
1563336095.7,286046996.8,N
1563336115.6,286046997.1,N
1563336135.4,286046996.6,N
1563336155.2,286047001.1,N
1563336175.1,286047001.1,N
1563336176.0,286047001.1,N
1563336195.8,286047000.8,N
1563336215.6,286047000.4,N
1563336235.5,286047000.5,N
1563336255.3,286046999.5,N
1563336275.2,286046999.3,N
1563336295.9,286047001.2,N
1563336315.7,286047000.8,N
1563336335.6,286046999.6,N
1563336355.4,286046998.3,N
1563336375.2,286046999.4,N
1563336395.1,286046996.6,N
1563336396.0,286046996.6,N
1563336415.8,286046998.2,N
1563336435.7,286046998.8,N
1563336455.5,286047000.5,N
1563336475.3,286047000.1,N
1563336495.2,286047001.2,N
1563336515.0,286047001.1,N
1563336515.9,286047001.1,N
1563336535.8,286046998.3,N
1563336555.6,286047001.1,N
1563336575.7,286047000.8,N
1563336595.6,286047000.6,N
1563336615.4,286047001.7,N
1563336635.2,286047000.5,N
1563336655.1,286046998.4,N
1563336656.0,286046998.4,N
1563336675.8,286046998.2,N
1563336695.7,286046998.4,N
1563336715.5,286046998.2,N
1563336735.3,286047000.9,N
1563336755.2,286046998.5,N
1563336775.0,286046999.4,N
1563336775.9,286046999.4,N
1563336795.8,286047000.7,N
1563336815.6,286047001.2,N
1563336835.4,286047002.3,N
1563336855.3,286047002.7,N
1563336875.1,286046999.7,N
1563336895.8,286047000.5,N
1563336915.7,286047000.2,N
1563336935.5,286046999.9,N
1563336955.4,286047002.4,N
1563336975.2,286047001.7,N
1563336995.0,286047006.0,Y
1563336995.9,286047006.0,P
1563337015.8,286047003.7,N
1563337035.6,286047004.3,N
1563337055.6,286047002.3,N
1563337075.4,286047003.3,N
1563337095.3,286047003.0,N
1563337115.1,286047003.6,N
1563337135.9,286047001.7,N
1563337155.7,286047001.5,N
1563337175.5,286047004.3,N
1563337195.4,286047004.4,N
1563337215.2,286047003.2,N
1563337235.0,286047003.2,N
1563337235.9,286047003.2,N
1563337255.8,286047004.0,N
1563337275.6,286047002.1,N
1563337295.5,286046999.9,N
1563337315.3,286047000.9,N
1563337335.1,286047000.9,N
1563337355.9,286047000.8,N
1563337375.7,286047000.8,N
1563337395.5,286047001.1,N
1563337415.4,286047001.1,N
1563337435.2,286046998.9,N
1563337455.1,286046999.4,N
1563337456.0,286046999.4,N
1563337475.8,286046998.5,N
1563337495.7,286046998.8,N
1563337515.5,286046999.0,N
1563337535.3,286046998.4,N
1563337555.2,286046996.8,N
1563337605.0,286046999.1,E
1563337615.9,286046998.4,N
1563337635.7,286047001.1,P
1563337655.2,286046999.4,N
1563337675.9,286046998.3,N
1563337695.7,286046996.6,Y
1563337745.6,286046998.2,E
1563337755.5,286047000.9,N
1563337775.4,286046999.7,P
1563337795.2,286047001.4,N
1563337815.0,286047002.5,Y
1563337816.0,286047002.5,P
1563337835.8,286047002.7,N
1563337855.6,286047001.6,N
1563337875.5,286047001.9,N
1563337895.3,286047001.7,N
1563337915.3,286047002.1,Y
1563337935.2,286046999.9,P
1563337955.9,286047000.2,N
1563337975.7,286047001.1,N
1563337995.6,286047001.1,N
1563338015.4,286046997.3,Y
1563338035.3,286046995.0,P
1563338055.1,286046995.0,N
1563338056.0,286046995.0,N
1563338075.8,286046995.7,N
1563338095.7,286046996.8,N
1563338115.5,286046997.1,N
1563338135.4,286046997.0,N
1563338155.2,286046996.2,N
1563338175.0,286046995.0,N
1563338175.9,286046995.0,N
1563338195.8,286046994.0,Y
1563338215.7,286046999.1,P
1563338235.6,286046996.8,N
1563338255.4,286046998.0,N
1563338275.3,286047011.9,Y
1563338295.1,286047000.5,P
1563338296.0,286047000.5,N
1563338315.8,286047000.4,N
1563338335.7,286046998.5,N
1563338355.5,286047000.8,N
1563338375.3,286047002.4,N
1563338395.2,286047002.7,N
1563338415.0,286047000.6,N
1563338415.9,286047000.6,N
1563338435.8,286046996.5,N
1563338455.6,286046998.8,N
1563338475.4,286046999.0,N
1563338495.3,286046998.6,N
1563338515.1,286047000.5,N
1563338535.9,286047002.4,N
1563338555.7,286047002.4,N
1563338575.5,286046999.8,N
1563338595.4,286047002.6,N
1563338615.2,286047001.4,N
1563338635.0,286047002.6,N
1563338636.0,286047002.6,N
1563338655.8,286047001.8,N
1563338675.6,286047000.3,N
1563338695.5,286047003.8,N
1563338715.3,286047002.9,N
1563338735.1,286047004.1,N
1563338755.9,286047002.9,N
1563338775.7,286047005.7,Y
1563338795.6,286047003.3,P
1563338815.4,286047005.5,P
1563338835.2,286047002.9,N
1563338855.1,286047003.7,N
1563338856.0,286047003.7,N
1563338875.8,286047005.5,Y
1563338895.7,286047002.8,P
1563338915.5,286046999.8,N
1563338935.4,286047002.4,N
1563338955.2,286047001.6,N
1563338975.0,286047004.2,Y
1563338975.9,286047004.2,P
1563338995.8,286047000.0,N
1563339015.2,286046999.2,N
1563339035.0,286046999.2,N
1563339035.9,286046999.2,N
1563339055.7,286046999.5,N
1563339075.6,286046998.9,N
1563339095.4,286046999.4,N
1563339115.3,286046996.9,N
1563339135.1,286046998.2,N
1563339136.0,286046998.2,N
1563339155.8,286047000.6,N
1563339175.7,286046999.5,N
1563339195.5,286046999.2,N
1563339215.3,286046999.6,N
1563339235.2,286046996.9,N
1563339255.0,286046999.4,N
1563339255.9,286046999.4,N
1563339275.8,286046999.3,N
1563339295.6,286046998.9,N
1563339315.4,286046998.5,N
1563339335.3,286047000.4,N
1563339355.1,286046998.5,N
1563339375.9,286047001.2,N
1563339395.7,286047000.1,N
1563339415.5,286046997.0,N
1563339435.4,286046998.9,N
1563339455.2,286047000.8,N
1563339475.0,286047001.2,N
1563339476.0,286047001.2,N
1563339495.8,286046998.3,N
1563339515.6,286047002.4,N
1563339535.5,286047000.9,N
1563339555.3,286047000.4,N
1563339575.1,286047000.3,N
1563339595.9,286047000.1,N
